Regional Weather Roundup
Issued by NWS Goodland, KS

Home | Current Version | Previous Version | Text Only | Print | Product List | Glossary Off
Versions: 1 2 3 4 5 6 7 8 9 10 11 12 13 14 15 16 17 18 19 20 21 22 23 24 25 26 27 28 29 30 31 32 33 34 35 36 37 38 39 40 41 42 43 44 45 46 47 48 49 50

000
ASUS43 KGLD 261359
RWRGLD

GOODLAND FORECAST AREA HOURLY WEATHER ROUNDUP
NATIONAL WEATHER SERVICE GOODLAND KS
800 AM MDT SAT JUL 26 2014

...OFFICIAL OBSERVATIONS...

CITY           SKY/WX    TMP DP  RH WIND       PRES   REMARKS
GOODLAND KS    SUNNY     76  64  66 W9        30.00R
HILL CITY KS   SUNNY     80  66  62 NW7       29.91R
IMPERIAL NEB   SUNNY     76  58  53 NW14      29.96R
MCCOOK NEB     SUNNY     75  66  73 S8        29.91R
AKRON CO       SUNNY     73  54  51 NW14      30.10R
BURLINGTON CO  SUNNY     78  61  55 W10       30.05R
LIMON CO       SUNNY     74  51  44 W6        30.15R
$$

...UNOFFICIAL OBSERVATIONS...

CITY           SKY/WX    TMP DP  RH WIND       PRES   REMARKS
COLBY KS       SUNNY     79  68  69 SW7       29.97R
GOVE KS          N/A     75  32  20 MISG        N/A
NORTON KS      SUNNY     75  63  64 CALM      29.92R
SHARON SPRINGS   N/A     73  66  79 CALM        N/A
WAKEENEY KS      N/A     78  63  60 MISG        N/A
KIT CARSON CO    N/A     75  64  70 CALM        N/A
YUMA CO          N/A     72  55  55 W12         N/A
$$



USA.gov is the U.S. government's official web portal to all federal, state and local government web resources and services.